Coatesville, PA

11:10 AM EDT on October 18, 2017 (GMT -0400)
Chester County Carlson

Weather History for KMQS - February, 2013

Change the Weather History Date:

Wednesday, February 27, 2013

  Actual Average (KILG) Record (KILG)
Temperature  
Mean Temperature 44 °F -  
Max Temperature 51 °F 47 °F 73 °F (1997)
Min Temperature 37 °F 28 °F 5 °F (1934)
Degree Days  
Heating Degree Days 21    
Moisture  
Dew Point 38 °F    
Average Humidity 83    
Maximum Humidity 100    
Minimum Humidity 61    
Precipitation  
Precipitation 0.07 in - - ()
Sea Level Pressure  
Sea Level Pressure 29.61 in    
Wind  
Wind Speed 11 mph (NNW)    
Max Wind Speed 24 mph    
Max Gust Speed 34 mph    
Visibility 6 miles    
Events Rain    
Averages and records for this station are not official NWS values.
T = Trace of Precipitation, MM = Missing Value Source: NWS Daily Summary

Daily Weather History Graph

Daily Weather History Graph

Search for Another Location

Airport or City:

Trip Planner

Search our weather history database for the weather conditions in past years. The results will help you decide how hot, cold, wet, or windy it might be!

Date:

Astronomy

Feb. 27, 2013 Rise Set
Actual Time 6:39 AM EST 5:53 PM EST
Civil Twilight 6:12 AM EST 6:20 PM EST
Nautical Twilight 5:40 AM EST 6:52 PM EST
Astronomical Twilight 5:09 AM EST 7:23 PM EST
Moon 8:12 PM EST (2/27) 7:13 AM EST (2/27)
Length of Visible Light 12h 08m
Length of Day
11h 14m
Waning Gibbous, 96% of the Moon is Illuminated
Feb 27
Waning Gibbous
Mar 4
Last Quarter
Mar 11
New
Mar 19
First Quarter
Mar 27
Full

Hourly Weather History & Observations

Time (EST) Temp. Windchill Dew Point Humidity Pressure Visibility Wind Dir Wind Speed Gust Speed Precip Events Conditions
12:15 AM 37.4 °F 28.9 °F 37.4 °F 100% 29.71 in 4.0 mi ENE 13.8 mph 29.9 mph N/A Rain Light Rain
12:35 AM 37.4 °F 26.9 °F 37.4 °F 100% 29.70 in 3.0 mi ENE 20.7 mph 34.5 mph N/A   Overcast
12:55 AM 37.4 °F 27.5 °F 37.4 °F 100% 29.70 in 2.5 mi ENE 18.4 mph 29.9 mph 0.02 in Rain Light Rain
1:15 AM 37.4 °F 28.2 °F 37.4 °F 100% 29.68 in 2.5 mi ENE 16.1 mph 28.8 mph N/A Rain Light Rain
1:35 AM 37.4 °F 29.3 °F 37.4 °F 100% 29.67 in 2.0 mi ENE 12.7 mph 26.5 mph 0.01 in   Overcast
1:55 AM 37.4 °F 32.8 °F 37.4 °F 100% 29.66 in 1.8 mi NE 5.8 mph 18.4 mph 0.02 in Rain Light Rain
2:35 AM 39.2 °F 34.2 °F 39.2 °F 100% 29.63 in 2.0 mi ENE 6.9 mph 18.4 mph 0.02 in Rain Light Rain
2:55 AM 39.2 °F 31.6 °F 39.2 °F 100% 29.62 in 2.0 mi ENE 12.7 mph 25.3 mph 0.02 in Rain Light Rain
3:15 AM 39.2 °F 33.0 °F 39.2 °F 100% 29.59 in 1.8 mi ENE 9.2 mph 31.1 mph N/A Rain Light Rain
3:35 AM 39.2 °F 29.0 °F 39.2 °F 100% 29.57 in 2.0 mi East 21.9 mph 27.6 mph 0.01 in   Overcast
3:55 AM 39.2 °F 28.7 °F 39.2 °F 100% 29.56 in 2.0 mi East 23.0 mph 33.4 mph 0.01 in   Overcast
4:15 AM 39.2 °F 32.5 °F 39.2 °F 100% 29.56 in 2.0 mi ENE 10.4 mph 25.3 mph N/A   Overcast
4:35 AM 41.0 °F 34.3 °F 39.2 °F 93% 29.55 in 2.0 mi ENE 11.5 mph 27.6 mph N/A   Overcast
4:55 AM 41.0 °F 33.1 °F 39.2 °F 93% 29.55 in 1.5 mi ENE 15.0 mph 25.3 mph N/A   Overcast
5:15 AM 41.0 °F 31.1 °F 41.0 °F 100% 29.53 in 2.0 mi East 23.0 mph 34.5 mph N/A   Overcast
5:35 AM 41.0 °F 33.9 °F 41.0 °F 100% 29.53 in 2.0 mi ENE 12.7 mph 23.0 mph N/A   Overcast
5:55 AM 41.0 °F 38.0 °F 41.0 °F 100% 29.54 in 2.0 mi NE 4.6 mph 24.2 mph N/A   Overcast
6:15 AM 41.0 °F 35.2 °F 41.0 °F 100% 29.54 in 2.0 mi ENE 9.2 mph - N/A   Overcast
6:35 AM 41.0 °F 37.1 °F 41.0 °F 100% 29.53 in 1.8 mi ENE 5.8 mph - N/A   Overcast
7:15 AM 41.0 °F 37.1 °F 41.0 °F 100% 29.52 in 2.0 mi NE 5.8 mph - N/A   Overcast
7:35 AM 41.0 °F 38.0 °F 41.0 °F 100% 29.52 in 1.8 mi NE 4.6 mph - N/A   Overcast
7:55 AM 41.0 °F 37.1 °F 41.0 °F 100% 29.52 in 3.0 mi NE 5.8 mph - N/A   Overcast
8:15 AM 41.0 °F 39.0 °F 41.0 °F 100% 29.54 in 5.0 mi ENE 3.5 mph - N/A   Overcast
8:35 AM 41.0 °F - 41.0 °F 100% 29.54 in 5.0 mi Calm Calm - N/A   Overcast
8:55 AM 41.0 °F - 41.0 °F 100% 29.54 in 1.5 mi Calm Calm - N/A   Overcast
9:15 AM 42.8 °F - 42.8 °F 100% 29.54 in 0.8 mi Calm Calm - N/A   Overcast
9:35 AM 42.8 °F - 42.8 °F 100% 29.54 in 0.8 mi Calm Calm - N/A Rain Light Rain
9:55 AM 42.8 °F 39.3 °F 42.8 °F 100% 29.57 in 1.8 mi West 5.8 mph - N/A Rain Light Rain
10:15 AM 42.8 °F 37.5 °F 42.8 °F 100% 29.57 in 0.8 mi West 9.2 mph - N/A   Overcast
10:35 AM 42.8 °F 36.6 °F 42.8 °F 100% 29.57 in 2.0 mi WNW 11.5 mph - N/A   Overcast
10:55 AM 42.8 °F 36.2 °F 42.8 °F 100% 29.58 in 5.0 mi WNW 12.7 mph - N/A   Overcast
11:15 AM 42.8 °F 34.8 °F 42.8 °F 100% 29.58 in 7.0 mi WNW 17.3 mph - N/A   Overcast
11:35 AM 44.6 °F 37.2 °F 42.8 °F 93% 29.59 in 7.0 mi West 17.3 mph 20.7 mph N/A   Mostly Cloudy
11:55 AM 46.4 °F 38.7 °F 42.8 °F 87% 29.59 in 10.0 mi WNW 20.7 mph 25.3 mph N/A   Mostly Cloudy
12:15 PM 46.4 °F 38.1 °F 42.8 °F 87% 29.59 in 10.0 mi WNW 24.2 mph 27.6 mph N/A   Mostly Cloudy
12:35 PM 46.4 °F 39.2 °F 41.0 °F 81% 29.59 in 10.0 mi WNW 18.4 mph 26.5 mph N/A   Mostly Cloudy
12:55 PM 48.2 °F - 41.0 °F 76% 29.58 in 10.0 mi WNW 18.4 mph 33.4 mph N/A   Mostly Cloudy
1:55 PM 50.0 °F - 39.2 °F 66% 29.60 in 10.0 mi WNW 20.7 mph 29.9 mph N/A   Mostly Cloudy
2:15 PM 51.8 °F - 39.2 °F 62% 29.60 in 10.0 mi NW 19.6 mph 25.3 mph N/A   Mostly Cloudy
2:35 PM 48.2 °F - 37.4 °F 66% 29.61 in 10.0 mi WNW 15.0 mph - N/A   Mostly Cloudy
2:55 PM 48.2 °F - 37.4 °F 66% 29.61 in 10.0 mi WNW 13.8 mph 23.0 mph N/A   Overcast
3:15 PM 50.0 °F - 37.4 °F 62% 29.62 in 10.0 mi West 13.8 mph - N/A   Overcast
3:35 PM 50.0 °F - 37.4 °F 62% 29.62 in 10.0 mi WNW 13.8 mph - N/A   Overcast
3:55 PM 48.2 °F - 37.4 °F 66% 29.62 in 10.0 mi WNW 9.2 mph - N/A   Overcast
4:15 PM 48.2 °F - 37.4 °F 66% 29.62 in 10.0 mi West 9.2 mph - N/A   Overcast
4:35 PM 48.2 °F - 37.4 °F 66% 29.63 in 10.0 mi West 5.8 mph - N/A   Overcast
4:55 PM 48.2 °F - 37.4 °F 66% 29.63 in 10.0 mi West 9.2 mph - N/A   Overcast
5:15 PM 48.2 °F - 37.4 °F 66% 29.63 in 10.0 mi West 5.8 mph - N/A   Overcast
5:35 PM 48.2 °F - 35.6 °F 62% 29.64 in 10.0 mi WNW 9.2 mph - N/A   Overcast
5:55 PM 46.4 °F 39.5 °F 35.6 °F 66% 29.65 in 10.0 mi WNW 17.3 mph 20.7 mph N/A   Mostly Cloudy
6:15 PM 46.4 °F 41.5 °F 33.8 °F 62% 29.65 in 10.0 mi WNW 10.4 mph - N/A   Mostly Cloudy
6:35 PM 44.6 °F 39.2 °F 33.8 °F 66% 29.66 in 10.0 mi WNW 10.4 mph - N/A   Mostly Cloudy
6:55 PM 42.8 °F 37.5 °F 33.8 °F 70% 29.66 in 10.0 mi WNW 9.2 mph - N/A   Mostly Cloudy
7:15 PM 44.6 °F 40.7 °F 33.8 °F 66% 29.66 in 10.0 mi WNW 6.9 mph - N/A   Scattered Clouds
7:35 PM 44.6 °F 43.1 °F 33.8 °F 66% 29.67 in 10.0 mi SW 3.5 mph - N/A   Scattered Clouds
7:55 PM 44.6 °F 43.1 °F 33.8 °F 66% 29.67 in 10.0 mi SSW 3.5 mph - N/A   Overcast
8:15 PM 44.6 °F 43.1 °F 33.8 °F 66% 29.67 in 10.0 mi South 3.5 mph - N/A   Overcast
8:35 PM 44.6 °F 43.1 °F 33.8 °F 66% 29.68 in 10.0 mi SW 3.5 mph - N/A   Overcast
8:55 PM 44.6 °F - 33.8 °F 66% 29.68 in 10.0 mi Calm Calm - N/A   Overcast
9:15 PM 44.6 °F - 33.8 °F 66% 29.68 in 10.0 mi Calm Calm - N/A   Overcast
9:35 PM 44.6 °F - 33.8 °F 66% 29.68 in 10.0 mi Calm Calm - N/A   Overcast
9:55 PM 44.6 °F - 32.0 °F 61% 29.67 in 10.0 mi Calm Calm - N/A   Overcast
10:15 PM 42.8 °F - 33.8 °F 70% 29.67 in 10.0 mi Calm Calm - N/A   Overcast
10:35 PM 42.8 °F - 32.0 °F 66% 29.67 in 10.0 mi Calm Calm - N/A   Overcast
10:55 PM 42.8 °F - 33.8 °F 70% 29.66 in 10.0 mi Calm Calm - N/A   Mostly Cloudy
11:15 PM 42.8 °F - 33.8 °F 70% 29.66 in 10.0 mi Calm Calm - N/A   Overcast
11:35 PM 42.8 °F - 32.0 °F 66% 29.65 in 10.0 mi Calm Calm - N/A   Overcast
11:55 PM 42.8 °F - 32.0 °F 66% 29.65 in 10.0 mi Calm Calm - N/A   Scattered Clouds